Wind_Speed
7 7 8 8 8 7 7 7 6 6 5 5 4 4 3 2 2 2 2 2 3 4 5 6 6 7 7 7 8 9 9 9 8 8 8 8 9 9 9 9 9 10 11
7 7 8 8 8 8 7 7 7 6 6 5 5 4 3 3 3 3 3 3 3 4 4 5 6 6 6 7 8 8 8 8 8 7 7 8 8 9 10 10 10 10 11
8 8 8 8 8 8 7 6 6 6 6 5 5 4 4 3 2 2 3 3 3 4 4 5 6 6 6 6 6 7 7 7 7 7 8 8 8 9 9 10 11 11 11
8 8 8 8 8 8 7 6 6 6 6 5 5 4 4 3 2 2 3 3 4 4 4 5 5 6 6 6 6 6 6 7 7 7 7 7 8 8 9 9 10 11 13
8 8 8 8 8 7 7 6 6 6 6 5 4 4 3 3 3 2 3 3 3 4 4 5 5 6 6 6 6 6 5 5 6 6 7 7 7 8 8 9 10 11 12
7 8 8 8 8 7 7 6 6 5 5 5 5 4 4 3 3 3 3 3 3 3 4 4 5 5 6 5 5 4 4 5 5 6 7 7 7 8 8 9 10 10 11
7 7 8 8 8 7 7 7 7 6 6 5 5 5 4 4 4 3 3 3 3 4 4 4 4 4 4 5 4 4 4 4 5 6 6 6 7 8 9 9 10 10 11
6 7 7 8 7 7 7 7 7 7 6 6 6 5 5 4 4 4 3 3 3 4 4 3 3 3 3 3 5 5 4 5 5 5 5 6 7 7 8 10 10 11 12
4 5 6 7 7 7 7 7 6 6 7 6 6 5 5 5 4 3 3 3 3 3 3 2 2 3 3 4 5 5 6 6 6 5 5 6 6 7 8 9 10 11 13
3 4 5 5 6 6 6 6 6 6 6 6 6 5 5 5 4 3 2 2 2 2 2 2 3 3 4 5 6 6 7 8 7 7 7 7 7 8 8 8 9 10 12
2 3 4 4 4 5 5 5 5 5 5 5 5 5 4 4 4 3 2 1 1 1 2 3 3 4 4 5 6 7 8 8 8 8 9 9 8 8 8 9 10 11 12
3 3 3 3 3 3 4 4 4 4 5 4 4 4 4 4 3 2 2 2 1 1 2 3 4 4 5 6 7 8 8 9 9 9 9 10 10 10 10 11 11 12 13
4 4 3 3 3 3 3 3 4 4 4 4 4 4 4 4 3 3 2 2 2 2 3 3 4 5 6 7 7 8 9 10 10 10 10 11 12 12 12 12 13 14 15
5 5 5 5 4 4 4 4 4 4 4 4 4 4 5 4 3 3 3 3 3 3 4 4 5 6 6 7 8 8 10 11 11 12 12 12 13 14 15 15 15 16 16
7 7 7 6 6 6 5 5 4 4 4 5 5 4 5 5 4 4 4 4 5 5 6 6 6 6 7 8 9 10 11 12 13 13 15 15 15 16 17 18 18 19 19
8 9 8 7 7 7 7 6 5 5 5 5 6 5 6 5 5 6 6 6 6 7 7 8 8 9 10 10 11 13 13 14 14 15 16 17 17 18 19 20 20 21 22
9 9 9 9 8 8 8 8 7 7 7 7 7 7 7 7 6 7 7 8 8 8 9 9 10 11 12 12 13 14 15 16 17 18 18 19 20 20 20 21 21 22 23
10 10 9 9 9 9 9 9 8 9 9 9 9 9 8 8 8 8 9 9 10 11 11 12 13 14 14 15 16 17 18 18 19 20 21 22 23 24 24 25 25 25 26
10 10 10 10 10 10 9 9 10 10 11 11 11 10 10 10 10 10 11 12 13 13 14 15 15 16 17 18 19 20 21 22 22 23 24 25 26 27 28 28 28 28 29
11 11 11 10 10 10 10 11 11 12 13 13 13 12 12 12 13 13 14 14 15 16 17 18 18 19 19 21 21 22 22 24 25 26 27 28 30 31 31 32 32 32 32
12 12 12 12 12 12 12 12 13 14 14 14 15 15 15 15 15 16 16 17 18 19 20 20 21 22 23 23 24 25 25 26 27 29 30 31 33 34 34 35 35 35 35
13 13 14 13 14 14 14 15 15 16 16 16 16 17 17 18 18 19 20 20 21 22 23 23 24 25 26 27 28 28 29 30 31 32 33 34 36 37 37 38 38 39 39
14 14 15 15 15 16 17 17 18 18 18 18 18 19 19 20 21 22 23 24 24 25 26 27 27 28 29 30 30 31 32 33 34 35 36 37 39 40 40 41 41 42 42
16 16 16 17 17 18 19 19 19 19 20 20 20 21 22 22 23 24 25 26 26 27 28 29 30 31 32 33 33 34 35 36 37 39 40 41 42 43 43 44 45 46 46
18 18 18 19 19 20 21 21 21 22 22 22 23 24 24 25 26 26 27 28 29 30 31 32 33 34 35 36 37 38 39 40 41 42 44 44 45 45 46 47 48 49 49
19 19 20 20 21 22 23 23 24 24 25 25 26 27 28 28 29 30 31 32 33 33 34 35 37 37 38 39 40 41 43 44 44 45 46 46 46 47 47 48 49 50 51
Wind_Direction
22 18 12 10 9 8 9 10 12 15 22 27 30 31 46 73 73 70 101 128 151 166 171 178 188 189 194 199 198 197 200 199 202 210 214 216 218 219 219 215 218 215 213
26 19 15 12 12 13 15 18 21 24 30 35 38 43 54 72 80 80 88 113 139 157 165 176 179 180 187 190 189 190 192 192 197 205 209 213 219 220 220 221 224 219 218
25 20 16 14 15 15 19 24 29 30 34 41 45 52 61 69 86 102 105 113 122 138 151 166 170 169 176 176 179 183 187 190 197 205 210 213 216 219 223 227 229 226 225
21 19 18 20 19 18 21 26 32 36 39 43 49 56 62 68 86 109 119 117 117 127 144 156 160 157 162 167 169 175 183 189 195 206 208 210 216 222 226 233 235 232 228
18 17 18 20 21 23 25 27 31 37 43 48 54 58 63 60 72 93 115 128 132 136 145 153 157 158 161 168 171 175 184 193 201 211 214 210 218 227 234 239 237 231 226
20 21 22 23 25 29 33 35 35 38 43 48 56 64 68 65 73 85 99 123 142 145 149 157 163 169 171 176 178 179 190 203 213 223 224 222 226 229 236 237 234 231 228
25 26 25 26 30 34 38 42 43 44 46 50 57 65 69 68 71 84 100 119 140 148 155 158 162 167 177 186 200 203 204 213 223 234 236 237 237 235 239 238 239 235 228
25 24 27 28 31 35 38 43 47 51 51 52 56 61 65 66 71 81 96 127 152 161 163 167 173 179 191 203 216 225 229 229 238 248 250 251 252 250 249 250 244 237 231
20 26 30 31 33 35 37 41 46 50 51 51 50 55 60 64 69 78 87 110 138 162 178 197 208 219 230 236 239 241 242 246 248 259 256 259 261 257 254 256 249 242 237
12 20 26 29 33 35 37 40 43 44 45 44 46 51 55 56 56 61 75 100 132 161 194 221 235 245 250 253 256 256 257 255 253 259 261 264 267 270 270 259 256 248 242
347 358 10 17 21 27 29 29 29 33 32 30 35 38 40 38 43 45 51 67 136 182 213 236 247 256 263 267 267 266 260 266 262 262 265 267 266 271 272 264 258 252 248
318 324 339 352 357 2 6 5 5 10 14 15 14 13 18 21 21 26 27 19 9 296 257 254 257 263 274 280 280 272 272 271 272 269 267 270 270 272 273 269 266 257 255
298 305 307 320 325 322 329 340 343 349 357 358 358 359 3 9 7 5 359 345 323 314 299 277 275 274 276 282 285 280 278 273 272 274 274 274 274 274 273 273 273 266 260
286 290 294 293 298 298 303 314 319 329 337 341 347 351 349 348 350 354 343 323 311 313 309 294 286 285 287 286 287 289 286 282 278 276 277 277 275 276 275 277 275 270 265
280 283 286 289 286 290 290 291 307 322 331 337 340 341 337 333 327 325 324 317 311 309 308 302 296 296 296 293 291 290 291 291 288 284 279 277 276 277 279 279 276 272 271
279 280 281 281 279 283 285 282 292 303 309 313 320 325 327 323 315 315 318 319 318 311 309 302 300 298 297 297 295 293 292 290 290 289 285 281 279 277 280 281 277 273 271
277 280 281 279 276 277 279 273 280 289 297 300 302 308 313 314 311 307 308 309 312 312 308 307 305 301 298 299 299 296 295 294 292 291 290 287 286 285 287 285 281 276 273
275 277 279 279 277 276 276 272 279 285 290 294 297 300 301 302 301 301 302 304 305 307 308 306 304 302 299 298 298 297 295 295 294 292 290 290 290 290 289 286 283 279 275
273 277 281 280 279 277 276 274 277 281 286 289 292 293 294 293 293 293 294 296 299 301 303 303 302 302 301 299 298 296 293 293 292 291 290 291 291 291 290 287 284 281 277
272 273 277 277 276 277 278 277 279 283 285 285 287 288 289 290 290 291 293 294 296 298 300 299 299 299 299 300 299 298 296 295 295 294 292 292 291 291 290 287 284 280 278
273 274 273 275 275 278 279 279 281 284 285 285 285 285 287 288 289 291 292 294 295 297 298 299 299 299 299 298 298 297 296 297 296 295 294 293 293 292 290 287 285 282 279
272 273 274 274 275 276 278 281 284 284 285 285 285 286 287 288 289 290 292 294 295 295 297 298 298 299 298 298 297 296 296 296 295 295 295 294 293 292 290 288 286 283 281
274 275 274 275 275 276 278 281 283 285 285 285 285 286 287 287 288 290 292 293 294 295 296 297 298 299 298 298 297 297 296 296 296 296 295 294 293 292 290 288 286 284 283
276 278 278 277 277 278 279 281 283 285 285 285 286 286 287 288 289 291 292 293 293 295 296 297 298 298 298 298 297 296 296 297 296 296 295 294 293 291 290 289 287 284 282
277 278 279 278 278 279 280 281 283 284 284 285 286 287 288 289 290 290 291 293 294 294 295 296 297 298 297 297 297 296 296 296 296 296 295 294 293 292 290 290 289 286 283
277 278 279 280 281 282 283 284 284 284 285 285 287 288 289 290 290 291 292 293 294 294 295 296 296 297 296 296 297 297 296 296 296 296 295 294 293 292 291 290 290 287 285
Height
5874 5873 5871 5870 5868 5867 5865 5864 5863 5862 5861 5860 5860 5859 5859 5859 5860 5860 5860 5860 5861 5861 5862 5863 5865 5866 5867 5869 5870 5871 5873 5875 5877 5879 5880 5882 5883 5884 5885 5887 5888 5890 5891
5874 5873 5871 5869 5868 5866 5865 5863 5862 5861 5861 5860 5860 5859 5859 5859 5859 5860 5860 5860 5861 5861 5862 5863 5864 5865 5867 5869 5870 5871 5873 5875 5876 5878 5879 5880 5882 5883 5884 5885 5887 5888 5889
5874 5873 5871 5869 5867 5866 5864 5863 5862 5861 5861 5860 5860 5859 5859 5859 5859 5860 5860 5861 5861 5862 5863 5863 5864 5866 5867 5868 5870 5872 5873 5875 5876 5877 5878 5879 5880 5881 5882 5883 5884 5885 5887
5874 5873 5871 5869 5867 5866 5864 5863 5862 5861 5861 5860 5860 5859 5859 5859 5860 5860 5861 5861 5862 5862 5863 5864 5865 5866 5867 5869 5870 5871 5873 5874 5875 5876 5877 5878 5879 5880 5880 5881 5881 5882 5883
5875 5873 5871 5869 5867 5866 5865 5863 5862 5861 5861 5860 5860 5860 5859 5860 5860 5860 5861 5862 5862 5863 5864 5864 5865 5866 5868 5869 5870 5871 5873 5874 5875 5875 5876 5877 5877 5878 5878 5879 5878 5879 5879
5875 5873 5871 5869 5867 5866 5865 5863 5862 5862 5861 5861 5860 5860 5860 5860 5860 5861 5861 5862 5863 5863 5864 5865 5866 5867 5868 5869 5870 5871 5872 5873 5874 5874 5875 5875 5876 5876 5876 5877 5876 5877 5877
5875 5873 5871 5870 5868 5866 5865 5864 5863 5862 5862 5861 5861 5861 5861 5861 5861 5861 5862 5862 5863 5864 5865 5865 5866 5867 5868 5869 5870 5871 5871 5872 5873 5873 5874 5874 5874 5874 5875 5875 5874 5875 5875
5875 5874 5872 5870 5868 5867 5866 5865 5864 5863 5863 5862 5862 5862 5861 5862 5862 5862 5862 5862 5863 5864 5865 5866 5866 5867 5868 5869 5869 5870 5871 5871 5872 5872 5872 5872 5872 5873 5873 5872 5872 5872 5874
5875 5874 5872 5871 5869 5868 5867 5866 5865 5864 5863 5863 5863 5863 5862 5862 5862 5862 5862 5863 5863 5864 5865 5865 5866 5867 5868 5868 5869 5869 5870 5870 5870 5871 5871 5871 5870 5870 5870 5869 5869 5869 5871
5875 5874 5872 5871 5870 5869 5868 5867 5866 5865 5865 5864 5863 5863 5863 5863 5863 5862 5863 5863 5863 5864 5864 5865 5866 5866 5867 5867 5868 5868 5868 5869 5869 5869 5869 5869 5869 5869 5868 5867 5867 5867 5869
5874 5873 5872 5871 5870 5870 5869 5868 5867 5866 5865 5865 5864 5864 5863 5863 5863 5863 5863 5863 5863 5863 5864 5864 5865 5865 5865 5866 5866 5866 5866 5867 5867 5867 5867 5868 5868 5867 5867 5866 5866 5866 5868
5874 5873 5872 5871 5870 5870 5869 5868 5867 5866 5866 5865 5864 5864 5864 5863 5863 5863 5863 5863 5863 5863 5863 5863 5864 5864 5864 5864 5864 5864 5865 5865 5865 5865 5865 5865 5865 5865 5865 5865 5865 5866 5867
5873 5872 5871 5870 5869 5869 5868 5868 5867 5867 5866 5865 5865 5864 5864 5863 5863 5863 5862 5862 5862 5862 5862 5862 5862 5862 5862 5862 5862 5862 5862 5862 5862 5862 5862 5863 5862 5862 5863 5862 5862 5863 5864
5871 5870 5869 5869 5868 5868 5867 5867 5867 5866 5866 5865 5864 5864 5863 5863 5862 5862 5862 5862 5861 5861 5861 5861 5861 5861 5861 5860 5860 5860 5860 5859 5859 5859 5859 5859 5859 5859 5859 5859 5859 5859 5859
5869 5868 5867 5866 5866 5866 5866 5866 5866 5865 5865 5864 5864 5863 5863 5862 5862 5861 5861 5861 5861 5860 5860 5859 5859 5859 5858 5858 5858 5858 5857 5857 5856 5856 5855 5855 5856 5855 5855 5855 5855 5855 5855
5866 5865 5864 5864 5864 5863 5863 5864 5864 5864 5864 5864 5863 5863 5862 5861 5861 5861 5860 5860 5859 5859 5858 5857 5857 5856 5856 5855 5855 5855 5854 5853 5853 5852 5851 5851 5851 5851 5850 5850 5849 5849 5849
5863 5862 5861 5861 5861 5861 5861 5861 5862 5863 5863 5862 5862 5862 5861 5860 5860 5859 5859 5858 5858 5857 5856 5855 5854 5853 5853 5852 5852 5851 5850 5849 5849 5848 5847 5846 5846 5845 5845 5844 5843 5843 5843
5860 5859 5858 5858 5858 5858 5858 5859 5860 5861 5861 5861 5860 5860 5859 5859 5858 5857 5857 5856 5855 5855 5854 5853 5852 5851 5850 5849 5848 5847 5846 5845 5844 5843 5842 5841 5840 5839 5839 5838 5837 5836 5836
5857 5857 5856 5856 5855 5856 5856 5857 5858 5858 5858 5858 5858 5858 5857 5856 5856 5855 5854 5854 5853 5852 5851 5850 5848 5847 5846 5844 5843 5842 5841 5840 5838 5837 5836 5835 5834 5832 5831 5830 5829 5828 5828
5855 5854 5854 5854 5854 5854 5854 5855 5855 5856 5855 5855 5855 5854 5854 5853 5853 5852 5851 5850 5849 5848 5847 5846 5844 5843 5841 5840 5838 5837 5836 5834 5832 5831 5829 5827 5826 5825 5823 5822 5820 5819 5818
5853 5852 5852 5852 5852 5852 5852 5852 5853 5852 5852 5852 5851 5851 5850 5849 5849 5848 5847 5846 5845 5843 5842 5841 5839 5837 5836 5834 5833 5831 5829 5828 5826 5824 5822 5819 5817 5816 5814 5812 5811 5809 5808
5850 5850 5849 5849 5849 5849 5849 5849 5849 5849 5848 5848 5847 5846 5846 5845 5844 5843 5842 5841 5839 5838 5836 5835 5833 5831 5829 5827 5825 5823 5821 5820 5818 5816 5813 5810 5807 5805 5803 5801 5799 5798 5797
5847 5847 5846 5846 5846 5846 5846 5846 5845 5845 5844 5844 5843 5842 5841 5840 5839 5838 5836 5835 5833 5831 5829 5828 5826 5824 5821 5819 5817 5815 5812 5810 5808 5805 5803 5800 5797 5794 5792 5789 5787 5785 5784
5844 5843 5843 5842 5842 5842 5842 5841 5841 5840 5840 5839 5838 5837 5836 5834 5833 5831 5830 5828 5826 5824 5822 5820 5818 5816 5813 5810 5808 5805 5803 5800 5797 5794 5791 5789 5785 5782 5779 5776 5773 5771 5769
5840 5839 5839 5838 5838 5837 5837 5836 5835 5835 5834 5833 5832 5830 5829 5828 5826 5824 5823 5821 5819 5816 5814 5811 5809 5806 5803 5800 5797 5795 5792 5789 5786 5783 5778 5775 5772 5769 5766 5762 5758 5755 5753
5835 5834 5834 5833 5833 5832 5831 5830 5829 5828 5828 5826 5825 5824 5822 5820 5818 5816 5814 5812 5810 5808 5805 5802 5799 5796 5793 5789 5786 5783 5779 5776 5773 5770 5765 5761 5758 5754 5752 5749 5743 5739 5735